Location: Waco, TX
(31.5480°N, 97.1670°W)
Time: 04:31:03
(UTC-05:00)

ISS - Pass Details

Date: 09 May 2021
Orbit: 417 x 422 km, 51.6° (Epoch: 15 May)

Event Time Altitude Azimuth Distance (km) Brightness Sun altitude
Rises 01:03:57 0° 262° (W) 2,351 - -40.8°
Reaches altitude 10° 01:06:37 10° 285° (WNW) 1,492 - -40.8°
Maximum altitude 01:08:48 16° 325° (NW) 1,177 - -40.9°
Drops below altitude 10° 01:11:00 10° 6° (N) 1,498 - -40.9°
Sets 01:13:41 0° 29° (NNE) 2,365 - -40.9°
